Location: Krakow
(50.0830°N, 19.9170°E)
Time: 17:45:51
(UTC+01:00)

Vanguard 1 Rocket - Pass Details

Date: 18 December 2023
Orbit: 653 x 4219 km, 34.3° (Epoch: 29 February)

Event Time Altitude Azimuth Distance (km) Brightness Sun altitude
Rises 02:09:21 0° 238° (WSW) 8,083 - -50.1°
Reaches altitude 10° 02:14:57 10° 234° (SW) 7,271 - -49.3°
Exits shadow 02:35:23 47° 188° (S) 4,840 10.7 -46.3°
Maximum altitude 02:38:55 49° 170° (S) 4,642 10.7 -45.8°
Drops below altitude 10° 02:57:15 10° 103° (ESE) 5,739 11.9 -43.0°
Sets 03:01:00 0° 98° (E) 6,357 12.4 -42.4°
